Year,Month,Day,Hour,Minute,Value (Times are PST for temperature in C)
2008,04,10,00,00,6.00
2008,04,10,00,01,6.00
2008,04,10,00,02,6.00
2008,04,10,00,03,6.00
2008,04,10,00,04,6.00
2008,04,10,00,05,6.00
2008,04,10,00,06,6.00
2008,04,10,00,07,6.00
2008,04,10,00,08,6.00
2008,04,10,00,09,6.00
2008,04,10,00,10,6.00
2008,04,10,00,11,5.90
2008,04,10,00,12,5.90
2008,04,10,00,13,5.90
2008,04,10,00,14,5.90
2008,04,10,00,15,5.90
2008,04,10,00,16,5.90
2008,04,10,00,17,5.90
2008,04,10,00,18,5.90
2008,04,10,00,19,5.90
2008,04,10,00,20,5.90
2008,04,10,00,21,5.90
2008,04,10,00,22,5.90
2008,04,10,00,23,5.90
2008,04,10,00,24,5.90
2008,04,10,00,25,5.90
2008,04,10,00,26,5.90
2008,04,10,00,27,5.80
2008,04,10,00,28,5.80
2008,04,10,00,29,5.80
2008,04,10,00,30,5.80
2008,04,10,00,31,5.80
2008,04,10,00,32,5.80
2008,04,10,00,33,5.80
2008,04,10,00,34,5.80
2008,04,10,00,35,5.80
2008,04,10,00,36,5.80
2008,04,10,00,37,5.80
2008,04,10,00,38,5.80
2008,04,10,00,39,5.70
2008,04,10,00,40,5.70
2008,04,10,00,41,5.70
2008,04,10,00,42,5.70
2008,04,10,00,43,5.70
2008,04,10,00,44,5.70
2008,04,10,00,45,5.70
2008,04,10,00,46,5.70
2008,04,10,00,47,5.70
2008,04,10,00,48,5.70
2008,04,10,00,49,5.70
2008,04,10,00,50,5.70
2008,04,10,00,51,5.70
2008,04,10,00,52,5.70
2008,04,10,00,53,5.70
2008,04,10,00,54,5.70
2008,04,10,00,55,5.70
2008,04,10,00,56,5.70
2008,04,10,00,57,5.70
2008,04,10,00,58,5.70
2008,04,10,00,59,5.70
2008,04,10,01,00,5.70
2008,04,10,01,01,5.70
2008,04,10,01,02,5.70
2008,04,10,01,03,5.70
2008,04,10,01,04,5.70
2008,04,10,01,05,5.70
2008,04,10,01,06,5.70
2008,04,10,01,07,5.70
2008,04,10,01,08,5.70
2008,04,10,01,09,5.70
2008,04,10,01,10,5.70
2008,04,10,01,11,5.70
2008,04,10,01,12,5.70
2008,04,10,01,13,5.70
2008,04,10,01,14,5.70
2008,04,10,01,15,5.70
2008,04,10,01,16,5.70
2008,04,10,01,17,5.70
2008,04,10,01,18,5.70
2008,04,10,01,19,5.70
2008,04,10,01,20,5.70
2008,04,10,01,21,5.70
2008,04,10,01,22,5.70
2008,04,10,01,23,5.70
2008,04,10,01,24,5.60
2008,04,10,01,25,5.60
2008,04,10,01,26,5.60
2008,04,10,01,27,5.60
2008,04,10,01,28,5.60
2008,04,10,01,29,5.60
2008,04,10,01,30,5.50
2008,04,10,01,31,5.50
2008,04,10,01,32,5.50
2008,04,10,01,33,5.50
2008,04,10,01,34,5.40
2008,04,10,01,35,5.40
2008,04,10,01,36,5.40
2008,04,10,01,37,5.40
2008,04,10,01,38,5.40
2008,04,10,01,39,5.30
2008,04,10,01,40,5.30
2008,04,10,01,41,5.30
2008,04,10,01,42,5.30
2008,04,10,01,43,5.30
2008,04,10,01,44,5.30
2008,04,10,01,45,5.30
2008,04,10,01,46,5.30
2008,04,10,01,47,5.30
2008,04,10,01,48,5.20
2008,04,10,01,49,5.20
2008,04,10,01,50,5.20
2008,04,10,01,51,5.20
2008,04,10,01,52,5.10
2008,04,10,01,53,5.10
2008,04,10,01,54,5.10
2008,04,10,01,55,5.10
2008,04,10,01,56,5.10
2008,04,10,01,57,5.10
2008,04,10,01,58,5.10
2008,04,10,01,59,5.00
2008,04,10,02,00,4.90
2008,04,10,02,01,4.90
2008,04,10,02,02,4.90
2008,04,10,02,03,4.90
2008,04,10,02,04,4.90
2008,04,10,02,05,4.90
2008,04,10,02,06,4.90
2008,04,10,02,07,4.80
2008,04,10,02,08,4.80
2008,04,10,02,09,4.80
2008,04,10,02,10,4.80
2008,04,10,02,11,4.70
2008,04,10,02,12,4.70
2008,04,10,02,13,4.70
2008,04,10,02,14,4.70
2008,04,10,02,15,4.70
2008,04,10,02,16,4.80
2008,04,10,02,17,4.80
2008,04,10,02,18,4.90
2008,04,10,02,19,4.90
2008,04,10,02,20,4.90
2008,04,10,02,21,4.90
2008,04,10,02,22,4.90
2008,04,10,02,23,4.90
2008,04,10,02,24,4.90
2008,04,10,02,25,4.90
2008,04,10,02,26,4.90
2008,04,10,02,27,4.90
2008,04,10,02,28,4.90
2008,04,10,02,29,4.90
2008,04,10,02,30,4.90
2008,04,10,02,31,4.90
2008,04,10,02,32,4.80
2008,04,10,02,33,4.80
2008,04,10,02,34,4.80
2008,04,10,02,35,4.90
2008,04,10,02,36,4.90
2008,04,10,02,37,4.90
2008,04,10,02,38,4.90
2008,04,10,02,39,4.90
2008,04,10,02,40,4.90
2008,04,10,02,41,4.90
2008,04,10,02,42,4.90
2008,04,10,02,43,4.90
2008,04,10,02,44,4.90
2008,04,10,02,45,4.90
2008,04,10,02,46,4.90
2008,04,10,02,47,4.90
2008,04,10,02,48,4.90
2008,04,10,02,49,4.90
2008,04,10,02,50,4.90
2008,04,10,02,51,4.90
2008,04,10,02,52,4.90
2008,04,10,02,53,4.90
2008,04,10,02,54,4.90
2008,04,10,02,55,4.90
2008,04,10,02,56,4.90
2008,04,10,02,57,4.90
2008,04,10,02,58,5.00
2008,04,10,02,59,5.10
2008,04,10,03,00,5.10
2008,04,10,03,01,5.10
2008,04,10,03,02,5.10
2008,04,10,03,03,5.10
2008,04,10,03,04,5.10
2008,04,10,03,05,5.10
2008,04,10,03,06,5.10
2008,04,10,03,07,5.10
2008,04,10,03,08,5.10
2008,04,10,03,09,5.00
2008,04,10,03,10,4.90
2008,04,10,03,11,4.90
2008,04,10,03,12,4.90
2008,04,10,03,13,4.90
2008,04,10,03,14,4.90
2008,04,10,03,15,4.90
2008,04,10,03,16,4.90
2008,04,10,03,17,4.90
2008,04,10,03,18,4.90
2008,04,10,03,19,4.90
2008,04,10,03,20,4.90
2008,04,10,03,21,4.90
2008,04,10,03,22,4.90
2008,04,10,03,23,4.90
2008,04,10,03,24,4.90
2008,04,10,03,25,4.90
2008,04,10,03,26,4.90
2008,04,10,03,27,4.90
2008,04,10,03,28,5.00
2008,04,10,03,29,5.10
2008,04,10,03,30,5.10
2008,04,10,03,31,5.10
2008,04,10,03,32,5.10
2008,04,10,03,33,5.10
2008,04,10,03,34,5.10
2008,04,10,03,35,5.10
2008,04,10,03,36,5.10
2008,04,10,03,37,5.10
2008,04,10,03,38,5.10
2008,04,10,03,39,5.10
2008,04,10,03,40,5.10
2008,04,10,03,41,5.10
2008,04,10,03,42,5.10
2008,04,10,03,43,5.10
2008,04,10,03,44,5.10
2008,04,10,03,45,5.10
2008,04,10,03,46,5.10
2008,04,10,03,47,5.10
2008,04,10,03,48,5.10
2008,04,10,03,49,5.10
2008,04,10,03,50,5.10
2008,04,10,03,51,5.10
2008,04,10,03,52,5.10
2008,04,10,03,53,5.10
2008,04,10,03,54,5.00
2008,04,10,03,55,4.90
2008,04,10,03,56,4.90
2008,04,10,03,57,4.80
2008,04,10,03,58,4.80
2008,04,10,03,59,4.70
2008,04,10,04,00,4.70
2008,04,10,04,01,4.70
2008,04,10,04,02,4.60
2008,04,10,04,03,4.60
2008,04,10,04,04,4.60
2008,04,10,04,05,4.60
2008,04,10,04,06,4.60
2008,04,10,04,07,4.60
2008,04,10,04,08,4.60
2008,04,10,04,09,4.60
2008,04,10,04,10,4.60
2008,04,10,04,11,4.60
2008,04,10,04,12,4.60
2008,04,10,04,13,4.60
2008,04,10,04,14,4.60
2008,04,10,04,15,4.60
2008,04,10,04,16,4.60
2008,04,10,04,17,4.60
2008,04,10,04,18,4.60
2008,04,10,04,19,4.60
2008,04,10,04,20,4.60
2008,04,10,04,21,4.60
2008,04,10,04,22,4.60
2008,04,10,04,23,4.60
2008,04,10,04,24,4.60
2008,04,10,04,25,4.60
2008,04,10,04,26,4.60
2008,04,10,04,27,4.60
2008,04,10,04,28,4.60
2008,04,10,04,29,4.70
2008,04,10,04,30,4.70
2008,04,10,04,31,4.70
2008,04,10,04,32,4.70
2008,04,10,04,33,4.70
2008,04,10,04,34,4.80
2008,04,10,04,35,4.80
2008,04,10,04,36,4.80
2008,04,10,04,37,4.80
2008,04,10,04,38,4.80
2008,04,10,04,39,4.90
2008,04,10,04,40,4.90
2008,04,10,04,41,4.90
2008,04,10,04,42,4.90
2008,04,10,04,43,4.90
2008,04,10,04,44,5.00
2008,04,10,04,45,5.10
2008,04,10,04,46,5.10
2008,04,10,04,47,5.10
2008,04,10,04,48,5.10
2008,04,10,04,49,5.20
2008,04,10,04,50,5.20
2008,04,10,04,51,5.20
2008,04,10,04,52,5.20
2008,04,10,04,53,5.20
2008,04,10,04,54,5.20
2008,04,10,04,55,5.20
2008,04,10,04,56,5.10
2008,04,10,04,57,5.10
2008,04,10,04,58,4.90
2008,04,10,04,59,4.90
2008,04,10,05,00,4.80
2008,04,10,05,01,4.70
2008,04,10,05,02,4.60
2008,04,10,05,03,4.60
2008,04,10,05,04,4.50
2008,04,10,05,05,4.50
2008,04,10,05,06,4.50
2008,04,10,05,07,4.50
2008,04,10,05,08,4.50
2008,04,10,05,09,4.50
2008,04,10,05,10,4.40
2008,04,10,05,11,4.40
2008,04,10,05,12,4.50
2008,04,10,05,13,4.50
2008,04,10,05,14,4.50
2008,04,10,05,15,4.50
2008,04,10,05,16,4.50
2008,04,10,05,17,4.50
2008,04,10,05,18,4.50
2008,04,10,05,19,4.50
2008,04,10,05,20,4.50
2008,04,10,05,21,4.50
2008,04,10,05,22,4.50
2008,04,10,05,23,4.50
2008,04,10,05,24,4.50
2008,04,10,05,25,4.50
2008,04,10,05,26,4.50
2008,04,10,05,27,4.50
2008,04,10,05,28,4.50
2008,04,10,05,29,4.50
2008,04,10,05,30,4.50
2008,04,10,05,31,4.50
2008,04,10,05,32,4.50
2008,04,10,05,33,4.60
2008,04,10,05,34,4.60
2008,04,10,05,35,4.60
2008,04,10,05,36,4.60
2008,04,10,05,37,4.60
2008,04,10,05,38,4.60
2008,04,10,05,39,4.60
2008,04,10,05,40,4.60
2008,04,10,05,41,4.50
2008,04,10,05,42,4.50
2008,04,10,05,43,4.40
2008,04,10,05,44,4.40
2008,04,10,05,45,4.30
2008,04,10,05,46,4.30
2008,04,10,05,47,4.30
2008,04,10,05,48,4.40
2008,04,10,05,49,4.40
2008,04,10,05,50,4.40
2008,04,10,05,51,4.40
2008,04,10,05,52,4.40
2008,04,10,05,53,4.40
2008,04,10,05,54,4.50
2008,04,10,05,55,4.50
2008,04,10,05,56,4.60
2008,04,10,05,57,4.60
2008,04,10,05,58,4.50
2008,04,10,05,59,4.50
2008,04,10,06,00,4.50
2008,04,10,06,01,4.50
2008,04,10,06,02,4.50
2008,04,10,06,03,4.50
2008,04,10,06,04,4.60
2008,04,10,06,05,4.60
2008,04,10,06,06,4.60
2008,04,10,06,07,4.60
2008,04,10,06,08,4.60
2008,04,10,06,09,4.60
2008,04,10,06,10,4.50
2008,04,10,06,11,4.50
2008,04,10,06,12,4.50
2008,04,10,06,13,4.50
2008,04,10,06,14,4.50
2008,04,10,06,15,4.60
2008,04,10,06,16,4.60
2008,04,10,06,17,4.60
2008,04,10,06,18,4.60
2008,04,10,06,19,4.70
2008,04,10,06,20,4.70
2008,04,10,06,21,4.70
2008,04,10,06,22,4.80
2008,04,10,06,23,4.80
2008,04,10,06,24,4.80
2008,04,10,06,25,4.80
2008,04,10,06,26,4.80
2008,04,10,06,27,4.80
2008,04,10,06,28,4.80
2008,04,10,06,29,4.80
2008,04,10,06,30,4.70
2008,04,10,06,31,4.70
2008,04,10,06,32,4.70
2008,04,10,06,33,4.60
2008,04,10,06,34,4.60
2008,04,10,06,35,4.60
2008,04,10,06,36,4.60
2008,04,10,06,37,4.60
2008,04,10,06,38,4.60
2008,04,10,06,39,4.60
2008,04,10,06,40,4.60
2008,04,10,06,41,4.60
2008,04,10,06,42,4.60
2008,04,10,06,43,4.60
2008,04,10,06,44,4.60
2008,04,10,06,45,4.60
2008,04,10,06,46,4.50
2008,04,10,06,47,4.50
2008,04,10,06,48,4.50
2008,04,10,06,49,4.50
2008,04,10,06,50,4.40
2008,04,10,06,51,4.40
2008,04,10,06,52,4.40
2008,04,10,06,53,4.50
2008,04,10,06,54,4.50
2008,04,10,06,55,4.50
2008,04,10,06,56,4.50
2008,04,10,06,57,4.60
2008,04,10,06,58,4.60
2008,04,10,06,59,4.60
2008,04,10,07,00,4.60
2008,04,10,07,01,4.70
2008,04,10,07,02,4.80
2008,04,10,07,03,4.80
2008,04,10,07,04,4.90
2008,04,10,07,05,4.90
2008,04,10,07,06,4.90
2008,04,10,07,07,5.00
2008,04,10,07,08,5.10
2008,04,10,07,09,5.10
2008,04,10,07,10,5.10
2008,04,10,07,11,5.10
2008,04,10,07,12,5.20
2008,04,10,07,13,5.20
2008,04,10,07,14,5.20
2008,04,10,07,15,5.30
2008,04,10,07,16,5.30
2008,04,10,07,17,5.30
2008,04,10,07,18,5.30
2008,04,10,07,19,5.30
2008,04,10,07,20,5.40
2008,04,10,07,21,5.40
2008,04,10,07,22,5.40
2008,04,10,07,23,5.50
2008,04,10,07,24,5.50
2008,04,10,07,25,5.50
2008,04,10,07,26,5.50
2008,04,10,07,27,5.50
2008,04,10,07,28,5.50
2008,04,10,07,29,5.60
2008,04,10,07,30,5.60
2008,04,10,07,31,5.60
2008,04,10,07,32,5.60
2008,04,10,07,33,5.60
2008,04,10,07,34,5.60
2008,04,10,07,35,5.60
2008,04,10,07,36,5.60
2008,04,10,07,37,5.70
2008,04,10,07,38,5.70
2008,04,10,07,39,5.70
2008,04,10,07,40,5.70
2008,04,10,07,41,5.70
2008,04,10,07,42,5.70
2008,04,10,07,43,5.80
2008,04,10,07,44,5.80
2008,04,10,07,45,5.90
2008,04,10,07,46,5.90
2008,04,10,07,47,5.90
2008,04,10,07,48,6.00
2008,04,10,07,49,6.00
2008,04,10,07,50,6.00
2008,04,10,07,51,6.00
2008,04,10,07,52,6.10
2008,04,10,07,53,6.10
2008,04,10,07,54,6.10
2008,04,10,07,55,6.10
2008,04,10,07,56,6.10
2008,04,10,07,57,6.10
2008,04,10,07,58,6.10
2008,04,10,07,59,6.20
2008,04,10,08,00,6.20
2008,04,10,08,01,6.20
2008,04,10,08,02,6.20
2008,04,10,08,03,6.20
2008,04,10,08,04,6.20
2008,04,10,08,05,6.20
2008,04,10,08,06,6.20
2008,04,10,08,07,6.30
2008,04,10,08,08,6.30
2008,04,10,08,09,6.30
2008,04,10,08,10,6.30
2008,04,10,08,11,6.30
2008,04,10,08,12,6.30
2008,04,10,08,13,6.30
2008,04,10,08,14,6.30
2008,04,10,08,15,6.40
2008,04,10,08,16,6.40
2008,04,10,08,17,6.40
2008,04,10,08,18,6.40
2008,04,10,08,19,6.40
2008,04,10,08,20,6.40
2008,04,10,08,21,6.40
2008,04,10,08,22,6.40
2008,04,10,08,23,6.50
2008,04,10,08,24,6.60
2008,04,10,08,25,6.60
2008,04,10,08,26,6.60
2008,04,10,08,27,6.70
2008,04,10,08,28,6.70
2008,04,10,08,29,6.80
2008,04,10,08,30,6.90
2008,04,10,08,31,7.00
2008,04,10,08,32,7.10
2008,04,10,08,33,7.20
2008,04,10,08,34,7.30
2008,04,10,08,35,7.30
2008,04,10,08,36,7.40
2008,04,10,08,37,7.50
2008,04,10,08,38,7.50
2008,04,10,08,39,7.60
2008,04,10,08,40,7.60
2008,04,10,08,41,7.70
2008,04,10,08,42,7.70
2008,04,10,08,43,7.70
2008,04,10,08,44,7.60
2008,04,10,08,45,7.60
2008,04,10,08,46,7.60
2008,04,10,08,47,7.60
2008,04,10,08,48,7.60
2008,04,10,08,49,7.60
2008,04,10,08,50,7.50
2008,04,10,08,51,7.50
2008,04,10,08,52,7.40
2008,04,10,08,53,7.40
2008,04,10,08,54,7.40
2008,04,10,08,55,7.30
2008,04,10,08,56,7.30
2008,04,10,08,57,7.30
2008,04,10,08,58,7.30
2008,04,10,08,59,7.30
2008,04,10,09,00,7.30
2008,04,10,09,01,7.20
2008,04,10,09,02,7.30
2008,04,10,09,03,7.30
2008,04,10,09,04,7.30
2008,04,10,09,05,7.20
2008,04,10,09,06,7.20
2008,04,10,09,07,7.20
2008,04,10,09,08,7.20
2008,04,10,09,09,7.20
2008,04,10,09,10,7.20
2008,04,10,09,11,7.20
2008,04,10,09,12,7.20
2008,04,10,09,13,7.20
2008,04,10,09,14,7.20
2008,04,10,09,15,7.20
2008,04,10,09,16,7.20
2008,04,10,09,17,7.30
2008,04,10,09,18,7.20
2008,04,10,09,19,7.20
2008,04,10,09,20,7.20
2008,04,10,09,21,7.30
2008,04,10,09,22,7.30
2008,04,10,09,23,7.30
2008,04,10,09,24,7.30
2008,04,10,09,25,7.30
2008,04,10,09,26,7.30
2008,04,10,09,27,7.30
2008,04,10,09,28,7.30
2008,04,10,09,29,7.30
2008,04,10,09,30,7.30
2008,04,10,09,31,7.30
2008,04,10,09,32,7.30
2008,04,10,09,33,7.30
2008,04,10,09,34,7.40
2008,04,10,09,35,7.40
2008,04,10,09,36,7.50
2008,04,10,09,37,7.40
2008,04,10,09,38,7.40
2008,04,10,09,39,7.40
2008,04,10,09,40,7.30
2008,04,10,09,41,7.30
2008,04,10,09,42,7.30
2008,04,10,09,43,7.40
2008,04,10,09,44,7.40
2008,04,10,09,45,7.50
2008,04,10,09,46,7.50
2008,04,10,09,47,7.60
2008,04,10,09,48,7.60
2008,04,10,09,49,7.60
2008,04,10,09,50,7.60
2008,04,10,09,51,7.70
2008,04,10,09,52,7.70
2008,04,10,09,53,7.80
2008,04,10,09,54,7.80
2008,04,10,09,55,7.80
2008,04,10,09,56,7.80
2008,04,10,09,57,7.80
2008,04,10,09,58,7.80
2008,04,10,09,59,7.80
2008,04,10,10,00,7.90
2008,04,10,10,01,7.90
2008,04,10,10,02,8.00
2008,04,10,10,03,8.00
2008,04,10,10,04,8.10
2008,04,10,10,05,8.10
2008,04,10,10,06,8.20
2008,04,10,10,07,8.20
2008,04,10,10,08,8.20
2008,04,10,10,09,8.20
2008,04,10,10,10,8.20
2008,04,10,10,11,8.20
2008,04,10,10,12,8.20
2008,04,10,10,13,8.20
2008,04,10,10,14,8.20
2008,04,10,10,15,8.30
2008,04,10,10,16,8.40
2008,04,10,10,17,8.40
2008,04,10,10,18,8.50
2008,04,10,10,19,8.60
2008,04,10,10,20,8.70
2008,04,10,10,21,8.70
2008,04,10,10,22,8.70
2008,04,10,10,23,8.80
2008,04,10,10,24,8.80
2008,04,10,10,25,8.80
2008,04,10,10,26,8.80
2008,04,10,10,27,8.80
2008,04,10,10,28,8.90
2008,04,10,10,29,8.90
2008,04,10,10,30,9.00
2008,04,10,10,31,9.20
2008,04,10,10,32,9.30
2008,04,10,10,33,9.40
2008,04,10,10,34,9.40
2008,04,10,10,35,9.50
2008,04,10,10,36,9.50
2008,04,10,10,37,9.50
2008,04,10,10,38,9.50
2008,04,10,10,39,9.50
2008,04,10,10,40,9.60
2008,04,10,10,41,9.50
2008,04,10,10,42,9.50
2008,04,10,10,43,9.50
2008,04,10,10,44,9.50
2008,04,10,10,45,9.60
2008,04,10,10,46,9.70
2008,04,10,10,47,9.80
2008,04,10,10,48,9.90
2008,04,10,10,49,10.10
2008,04,10,10,50,10.10
2008,04,10,10,51,10.10
2008,04,10,10,52,10.10
2008,04,10,10,53,10.10
2008,04,10,10,54,10.10
2008,04,10,10,55,10.10
2008,04,10,10,56,10.00
2008,04,10,10,57,9.90
2008,04,10,10,58,9.90
2008,04,10,10,59,9.90
2008,04,10,11,00,9.80
2008,04,10,11,01,9.70
2008,04,10,11,02,9.70
2008,04,10,11,03,9.70
2008,04,10,11,04,9.70
2008,04,10,11,05,9.70
2008,04,10,11,06,9.70
2008,04,10,11,07,9.70
2008,04,10,11,08,9.70
2008,04,10,11,09,9.70
2008,04,10,11,10,9.80
2008,04,10,11,11,9.90
2008,04,10,11,12,9.90
2008,04,10,11,13,9.90
2008,04,10,11,14,10.00
2008,04,10,11,15,9.90
2008,04,10,11,16,9.90
2008,04,10,11,17,9.90
2008,04,10,11,18,9.90
2008,04,10,11,19,9.90
2008,04,10,11,20,9.90
2008,04,10,11,21,9.90
2008,04,10,11,22,9.90
2008,04,10,11,23,9.90
2008,04,10,11,24,9.80
2008,04,10,11,25,9.70
2008,04,10,11,26,9.70
2008,04,10,11,27,9.70
2008,04,10,11,28,9.70
2008,04,10,11,29,9.70
2008,04,10,11,30,9.70
2008,04,10,11,31,9.70
2008,04,10,11,32,9.90
2008,04,10,11,33,10.00
2008,04,10,11,34,10.10
2008,04,10,11,35,10.20
2008,04,10,11,36,10.30
2008,04,10,11,37,10.40
2008,04,10,11,38,10.40
2008,04,10,11,39,10.60
2008,04,10,11,40,10.60
2008,04,10,11,41,10.60
2008,04,10,11,42,10.40
2008,04,10,11,43,10.40
2008,04,10,11,44,10.30
2008,04,10,11,45,10.30
2008,04,10,11,46,10.20
2008,04,10,11,47,10.10
2008,04,10,11,48,10.10
2008,04,10,11,49,10.10
2008,04,10,11,50,10.00
2008,04,10,11,51,10.10
2008,04,10,11,52,10.10
2008,04,10,11,53,10.30
2008,04,10,11,54,10.30
2008,04,10,11,55,10.30
2008,04,10,11,56,10.30
2008,04,10,11,57,10.40
2008,04,10,11,58,10.40
2008,04,10,11,59,10.40
2008,04,10,12,00,10.40
2008,04,10,12,01,10.50
2008,04,10,12,02,10.60
2008,04,10,12,03,10.70
2008,04,10,12,04,10.80
2008,04,10,12,05,10.90
2008,04,10,12,06,11.00
2008,04,10,12,07,11.10
2008,04,10,12,08,11.10
2008,04,10,12,09,11.00
2008,04,10,12,10,10.90
2008,04,10,12,11,10.80
2008,04,10,12,12,10.70
2008,04,10,12,13,10.70
2008,04,10,12,14,10.80
2008,04,10,12,15,10.90
2008,04,10,12,16,10.90
2008,04,10,12,17,10.90
2008,04,10,12,18,10.90
2008,04,10,12,19,10.90
2008,04,10,12,20,10.90
2008,04,10,12,21,10.90
2008,04,10,12,22,10.80
2008,04,10,12,23,10.70
2008,04,10,12,24,10.70
2008,04,10,12,25,10.60
2008,04,10,12,26,10.50
2008,04,10,12,27,10.40
2008,04,10,12,28,10.40
2008,04,10,12,29,10.30
2008,04,10,12,30,10.20
2008,04,10,12,31,10.10
2008,04,10,12,32,10.00
2008,04,10,12,33,10.00
2008,04,10,12,34,10.10
2008,04,10,12,35,10.10
2008,04,10,12,36,10.20
2008,04,10,12,37,10.30
2008,04,10,12,38,10.40
2008,04,10,12,39,10.50
2008,04,10,12,40,10.60
2008,04,10,12,41,10.60
2008,04,10,12,42,10.70
2008,04,10,12,43,10.80
2008,04,10,12,44,10.80
2008,04,10,12,45,10.90
2008,04,10,12,46,10.90
2008,04,10,12,47,10.90
2008,04,10,12,48,11.00
2008,04,10,12,49,11.10
2008,04,10,12,50,11.20
2008,04,10,12,51,11.40
2008,04,10,12,52,11.60
2008,04,10,12,53,11.60
2008,04,10,12,54,11.60
2008,04,10,12,55,11.40
2008,04,10,12,56,11.30
2008,04,10,12,57,11.30
2008,04,10,12,58,11.20
2008,04,10,12,59,11.10
2008,04,10,13,00,11.00
2008,04,10,13,01,10.90
2008,04,10,13,02,10.80
2008,04,10,13,03,10.70
2008,04,10,13,04,10.60
2008,04,10,13,05,10.60
2008,04,10,13,06,10.50
2008,04,10,13,07,10.40
2008,04,10,13,08,10.30
2008,04,10,13,09,10.20
2008,04,10,13,10,10.10
2008,04,10,13,11,10.10
2008,04,10,13,12,10.00
2008,04,10,13,13,9.90
2008,04,10,13,14,9.90
2008,04,10,13,15,9.80
2008,04,10,13,16,9.70
2008,04,10,13,17,9.70
2008,04,10,13,18,9.70
2008,04,10,13,19,9.70
2008,04,10,13,20,9.70
2008,04,10,13,21,9.80
2008,04,10,13,22,9.80
2008,04,10,13,23,9.80
2008,04,10,13,24,9.90
2008,04,10,13,25,9.90
2008,04,10,13,26,9.90
2008,04,10,13,27,9.90
2008,04,10,13,28,10.00
2008,04,10,13,29,10.10
2008,04,10,13,30,10.10
2008,04,10,13,31,10.10
2008,04,10,13,32,10.10
2008,04,10,13,33,10.20
2008,04,10,13,34,10.30
2008,04,10,13,35,10.40
2008,04,10,13,36,10.40
2008,04,10,13,37,10.60
2008,04,10,13,38,10.60
2008,04,10,13,39,10.70
2008,04,10,13,40,10.80
2008,04,10,13,41,10.80
2008,04,10,13,42,10.90
2008,04,10,13,43,10.90
2008,04,10,13,44,10.90
2008,04,10,13,45,10.90
2008,04,10,13,46,11.00
2008,04,10,13,47,11.00
2008,04,10,13,48,10.90
2008,04,10,13,49,10.90
2008,04,10,13,50,10.90
2008,04,10,13,51,10.90
2008,04,10,13,52,10.90
2008,04,10,13,53,10.90
2008,04,10,13,54,10.90
2008,04,10,13,55,10.90
2008,04,10,13,56,10.90
2008,04,10,13,57,10.90
2008,04,10,13,58,11.00
2008,04,10,13,59,11.10
2008,04,10,14,00,11.10
2008,04,10,14,01,11.20
2008,04,10,14,02,11.30
2008,04,10,14,03,11.40
2008,04,10,14,04,11.50
2008,04,10,14,05,11.60
2008,04,10,14,06,11.80
2008,04,10,14,07,11.90
2008,04,10,14,08,12.00
2008,04,10,14,09,12.20
2008,04,10,14,10,12.20
2008,04,10,14,11,12.30
2008,04,10,14,12,12.20
2008,04,10,14,13,12.20
2008,04,10,14,14,12.10
2008,04,10,14,15,11.90
2008,04,10,14,16,11.80
2008,04,10,14,17,11.80
2008,04,10,14,18,11.80
2008,04,10,14,19,11.90
2008,04,10,14,20,12.00
2008,04,10,14,21,12.20
2008,04,10,14,22,12.50
2008,04,10,14,23,12.50
2008,04,10,14,24,12.50
2008,04,10,14,25,12.30
2008,04,10,14,26,12.20
2008,04,10,14,27,12.10
2008,04,10,14,28,12.00
2008,04,10,14,29,12.00
2008,04,10,14,30,11.90
2008,04,10,14,31,11.90
2008,04,10,14,32,11.90
2008,04,10,14,33,11.90
2008,04,10,14,34,11.80
2008,04,10,14,35,11.80
2008,04,10,14,36,11.70
2008,04,10,14,37,11.60
2008,04,10,14,38,11.60
2008,04,10,14,39,11.70
2008,04,10,14,40,11.80
2008,04,10,14,41,11.80
2008,04,10,14,42,12.00
2008,04,10,14,43,12.10
2008,04,10,14,44,12.10
2008,04,10,14,45,12.20
2008,04,10,14,46,12.30
2008,04,10,14,47,12.50
2008,04,10,14,48,12.60
2008,04,10,14,49,12.70
2008,04,10,14,50,12.80
2008,04,10,14,51,12.90
2008,04,10,14,52,13.00
2008,04,10,14,53,13.10
2008,04,10,14,54,13.10
2008,04,10,14,55,13.20
2008,04,10,14,56,13.20
2008,04,10,14,57,13.10
2008,04,10,14,58,13.10
2008,04,10,14,59,13.10
2008,04,10,15,00,13.00
2008,04,10,15,01,12.90
2008,04,10,15,02,12.80
2008,04,10,15,03,12.70
2008,04,10,15,04,12.60
2008,04,10,15,05,12.50
2008,04,10,15,06,12.40
2008,04,10,15,07,12.30
2008,04,10,15,08,12.30
2008,04,10,15,09,12.30
2008,04,10,15,10,12.30
2008,04,10,15,11,12.40
2008,04,10,15,12,12.50
2008,04,10,15,13,12.60
2008,04,10,15,14,12.50
2008,04,10,15,15,12.50
2008,04,10,15,16,12.40
2008,04,10,15,17,12.30
2008,04,10,15,18,12.20
2008,04,10,15,19,12.10
2008,04,10,15,20,12.00
2008,04,10,15,21,12.00
2008,04,10,15,22,12.00
2008,04,10,15,23,12.00
2008,04,10,15,24,11.90
2008,04,10,15,25,11.90
2008,04,10,15,26,11.90
2008,04,10,15,27,11.80
2008,04,10,15,28,11.80
2008,04,10,15,29,11.80
2008,04,10,15,30,11.80
2008,04,10,15,31,11.80
2008,04,10,15,32,11.80
2008,04,10,15,33,11.80
2008,04,10,15,34,11.90
2008,04,10,15,35,12.00
2008,04,10,15,36,12.10
2008,04,10,15,37,12.20
2008,04,10,15,38,12.30
2008,04,10,15,39,12.40
2008,04,10,15,40,12.50
2008,04,10,15,41,12.60
2008,04,10,15,42,12.80
2008,04,10,15,43,12.90
2008,04,10,15,44,13.00
2008,04,10,15,45,13.10
2008,04,10,15,46,13.00
2008,04,10,15,47,13.00
2008,04,10,15,48,12.90
2008,04,10,15,49,12.90
2008,04,10,15,50,13.00
2008,04,10,15,51,13.00
2008,04,10,15,52,13.00
2008,04,10,15,53,13.10
2008,04,10,15,54,13.10
2008,04,10,15,55,13.10
2008,04,10,15,56,13.10
2008,04,10,15,57,13.10
2008,04,10,15,58,13.00
2008,04,10,15,59,12.90
2008,04,10,16,00,13.00
2008,04,10,16,01,13.10
2008,04,10,16,02,13.20
2008,04,10,16,03,13.10
2008,04,10,16,04,13.10
2008,04,10,16,05,13.00
2008,04,10,16,06,12.90
2008,04,10,16,07,12.80
2008,04,10,16,08,12.70
2008,04,10,16,09,12.60
2008,04,10,16,10,12.40
2008,04,10,16,11,12.30
2008,04,10,16,12,12.30
2008,04,10,16,13,12.20
2008,04,10,16,14,12.30
2008,04,10,16,15,12.30
2008,04,10,16,16,12.30
2008,04,10,16,17,12.30
2008,04,10,16,18,12.30
2008,04,10,16,19,12.30
2008,04,10,16,20,12.30
2008,04,10,16,21,12.30
2008,04,10,16,22,12.30
2008,04,10,16,23,12.30
2008,04,10,16,24,12.30
2008,04,10,16,25,12.10
2008,04,10,16,26,12.10
2008,04,10,16,27,12.00
2008,04,10,16,28,11.90
2008,04,10,16,29,11.90
2008,04,10,16,30,11.90
2008,04,10,16,31,11.90
2008,04,10,16,32,11.90
2008,04,10,16,33,11.90
2008,04,10,16,34,11.90
2008,04,10,16,35,11.90
2008,04,10,16,36,11.90
2008,04,10,16,37,11.90
2008,04,10,16,38,11.80
2008,04,10,16,39,11.80
2008,04,10,16,40,11.80
2008,04,10,16,41,11.80
2008,04,10,16,42,11.90
2008,04,10,16,43,11.90
2008,04,10,16,44,12.00
2008,04,10,16,45,12.00
2008,04,10,16,46,12.00
2008,04,10,16,47,12.00
2008,04,10,16,48,12.00
2008,04,10,16,49,12.00
2008,04,10,16,50,12.10
2008,04,10,16,51,12.10
2008,04,10,16,52,12.10
2008,04,10,16,53,12.10
2008,04,10,16,54,12.10
2008,04,10,16,55,12.10
2008,04,10,16,56,12.00
2008,04,10,16,57,12.00
2008,04,10,16,58,11.90
2008,04,10,16,59,11.90
2008,04,10,17,00,11.80
2008,04,10,17,01,11.80
2008,04,10,17,02,11.80
2008,04,10,17,03,11.90
2008,04,10,17,04,12.00
2008,04,10,17,05,12.00
2008,04,10,17,06,12.10
2008,04,10,17,07,12.10
2008,04,10,17,08,12.20
2008,04,10,17,09,12.30
2008,04,10,17,10,12.30
2008,04,10,17,11,12.30
2008,04,10,17,12,12.30
2008,04,10,17,13,12.20
2008,04,10,17,14,12.10
2008,04,10,17,15,12.00
2008,04,10,17,16,11.90
2008,04,10,17,17,11.80
2008,04,10,17,18,11.80
2008,04,10,17,19,11.80
2008,04,10,17,20,11.70
2008,04,10,17,21,11.70
2008,04,10,17,22,11.70
2008,04,10,17,23,11.70
2008,04,10,17,24,11.80
2008,04,10,17,25,11.80
2008,04,10,17,26,11.80
2008,04,10,17,27,11.90
2008,04,10,17,28,11.90
2008,04,10,17,29,11.90
2008,04,10,17,30,11.90
2008,04,10,17,31,12.00
2008,04,10,17,32,12.10
2008,04,10,17,33,12.20
2008,04,10,17,34,12.30
2008,04,10,17,35,12.40
2008,04,10,17,36,12.40
2008,04,10,17,37,12.50
2008,04,10,17,38,12.60
2008,04,10,17,39,12.60
2008,04,10,17,40,12.60
2008,04,10,17,41,12.60
2008,04,10,17,42,12.60
2008,04,10,17,43,12.60
2008,04,10,17,44,12.60
2008,04,10,17,45,12.50
2008,04,10,17,46,12.50
2008,04,10,17,47,12.50
2008,04,10,17,48,12.50
2008,04,10,17,49,12.40